Weather History for LSGC - November, 2013

Change the Weather History Date:

Thursday, November 28, 2013

  Actual Average Record
Temperature  
Mean Temperature 20 °F -  
Max Temperature 32 °F - - ()
Min Temperature 8 °F - - ()
Degree Days  
Heating Degree Days 45    
Moisture  
Dew Point 16 °F    
Average Humidity 71    
Maximum Humidity 93    
Minimum Humidity 40    
Precipitation  
Precipitation 0.00 in - - ()
Sea Level Pressure  
Sea Level Pressure 30.32 in    
Wind  
Wind Speed 5 mph ()    
Max Wind Speed 18 mph    
Max Gust Speed -    
Visibility 6.2 miles    
Events      
T = Trace of Precipitation, MM = Missing Value Source: Averaged Metar Reports

Daily Weather History Graph

Daily Weather History Graph

Search for Another Location

Airport or City:

Trip Planner

Search our weather history database for the weather conditions in past years. The results will help you decide how hot, cold, wet, or windy it might be!

Date:

Astronomy

Nov. 28, 2013 Rise Set
Actual Time 7:54 AM CET 4:46 PM CET
Civil Twilight 7:19 AM CET 5:21 PM CET
Nautical Twilight 6:41 AM CET 5:59 PM CET
Astronomical Twilight 6:05 AM CET 6:35 PM CET
Moon 2:22 AM CET (11/28) 2:04 PM CET (11/28)
Length of Visible Light 10h 01m
Length of Day
8h 52m
Waning Crescent, 25% of the Moon is Illuminated
Nov 28
Waning Crescent
Dec 3
New
Dec 9
First Quarter
Dec 17
Full
Dec 25
Last Quarter

Hourly Weather History & Observations

Time (CET) Temp. Windchill Dew Point Humidity Pressure Visibility Wind Dir Wind Speed Gust Speed Precip Events Conditions
12:20 AM 12.2 °F - 8.6 °F 85% 30.33 in - West 1.2 mph - N/A   Clear
12:50 AM 12.2 °F - 8.6 °F 85% 30.33 in - Variable 1.2 mph - N/A   Clear
1:20 AM 10.4 °F - 8.6 °F 92% 30.36 in 6.2 mi Calm Calm - N/A   Unknown
1:50 AM 14.0 °F - 12.2 °F 93% 30.33 in 6.2 mi Variable 2.3 mph - N/A   Unknown
2:20 AM 8.6 °F - 5.0 °F 85% 30.33 in 6.2 mi Variable 1.2 mph - N/A   Unknown
2:50 AM 12.2 °F - 8.6 °F 85% 30.33 in - NE 1.2 mph - N/A   Clear
3:20 AM 12.2 °F - 10.4 °F 92% 30.33 in - Variable 1.2 mph - N/A   Clear
3:50 AM 15.8 °F - 14.0 °F 93% 30.33 in - NE 1.2 mph - N/A   Clear
4:20 AM 15.8 °F - 12.2 °F 86% 30.33 in - Variable 1.2 mph - N/A   Clear
4:50 AM 14.0 °F - 10.4 °F 86% 30.33 in - Variable 1.2 mph - N/A   Clear
5:20 AM 17.6 °F 12.3 °F 12.2 °F 79% 30.33 in - ENE 3.5 mph - N/A   Clear
5:50 AM 19.4 °F 12.8 °F 14.0 °F 80% 30.33 in - ENE 4.6 mph - N/A   Clear
6:20 AM 21.2 °F 16.4 °F 12.2 °F 68% 30.33 in 6.2 mi Variable 3.5 mph - N/A   Unknown
6:50 AM 19.4 °F - 12.2 °F 74% 30.33 in 6.2 mi NE 2.3 mph - N/A   Unknown
7:20 AM 19.4 °F - 10.4 °F 68% 30.30 in 6.2 mi NE 2.3 mph - N/A   Unknown
7:50 AM 19.4 °F - 10.4 °F 68% 30.33 in - Variable 2.3 mph - N/A   Clear
8:20 AM 21.2 °F - 10.4 °F 63% 30.30 in - NNE 1.2 mph - N/A   Clear
8:50 AM 23.0 °F 17.0 °F 8.6 °F 54% 30.33 in - ENE 4.6 mph - N/A   Clear
9:20 AM 24.8 °F 16.9 °F 8.6 °F 50% 30.33 in - ENE 6.9 mph - N/A   Clear
9:50 AM 26.6 °F 15.7 °F 6.8 °F 43% 30.33 in - NE 12.7 mph - N/A   Clear
10:20 AM 26.6 °F 16.8 °F 12.2 °F 55% 30.33 in - NE 10.4 mph - N/A   Clear
10:50 AM 26.6 °F 17.5 °F 10.4 °F 51% 30.36 in - NE 9.2 mph - N/A   Clear
11:20 AM 26.6 °F 19.1 °F 14.0 °F 59% 30.33 in - East 6.9 mph - N/A   Clear
11:50 AM 28.4 °F 19.7 °F 14.0 °F 55% 30.33 in - ENE 9.2 mph - N/A   Clear
12:20 PM 30.2 °F 21.3 °F 12.2 °F 47% 30.33 in - NE 10.4 mph - N/A   Clear
12:50 PM 30.2 °F 23.4 °F 10.4 °F 44% 30.33 in - ENE 6.9 mph - N/A   Clear
1:20 PM 30.2 °F 22.6 °F 10.4 °F 44% 30.33 in - ENE 8.1 mph - N/A   Clear
1:50 PM 30.2 °F 22.6 °F 8.6 °F 40% 30.33 in - ENE 8.1 mph - N/A   Clear
2:20 PM 30.2 °F 23.4 °F 10.4 °F 44% 30.30 in 6.2 mi East 6.9 mph - N/A   Overcast
2:50 PM 30.2 °F 22.6 °F 12.2 °F 47% 30.30 in 6.2 mi NE 8.1 mph - N/A   Overcast
3:20 PM 30.2 °F 21.3 °F 12.2 °F 47% 30.30 in 6.2 mi NE 10.4 mph - N/A   Mostly Cloudy
3:50 PM 30.2 °F 21.3 °F 14.0 °F 51% 30.30 in 6.2 mi NE 10.4 mph - N/A   Mostly Cloudy
4:20 PM 30.2 °F 21.3 °F 15.8 °F 55% 30.30 in 6.2 mi NE 10.4 mph - N/A   Overcast
4:50 PM 30.2 °F 22.6 °F 15.8 °F 55% 30.30 in 6.2 mi NE 8.1 mph - N/A   Mostly Cloudy
5:20 PM 28.4 °F 22.2 °F 17.6 °F 64% 30.30 in 6.2 mi NNE 5.8 mph - N/A   Overcast
5:50 PM 28.4 °F 22.2 °F 21.2 °F 74% 30.30 in 6.2 mi NNE 5.8 mph - N/A   Overcast
6:20 PM 30.2 °F 21.9 °F 23.0 °F 75% 30.33 in 6.2 mi NE 9.2 mph - N/A   Scattered Clouds
6:50 PM 30.2 °F 21.9 °F 24.8 °F 80% 30.33 in 6.2 mi NE 9.2 mph - N/A   Overcast
7:20 PM 30.2 °F 21.3 °F 24.8 °F 80% 30.33 in 6.2 mi NE 10.4 mph - N/A   Overcast
7:50 PM 30.2 °F 21.3 °F 26.6 °F 86% 30.33 in 6.2 mi NE 10.4 mph - N/A   Overcast
8:20 PM 30.2 °F 21.9 °F 28.4 °F 93% 30.33 in 6.2 mi NE 9.2 mph - N/A   Overcast
8:50 PM 30.2 °F 20.2 °F 28.4 °F 93% 30.33 in 6.2 mi ENE 12.7 mph - N/A   Mostly Cloudy
9:20 PM 32.0 °F 23.6 °F 30.2 °F 93% 30.33 in 6.2 mi ENE 10.4 mph - N/A   Overcast
9:50 PM 32.0 °F 20.8 °F 30.2 °F 93% 30.30 in 6.2 mi NE 17.3 mph - N/A   Overcast
10:20 PM 32.0 °F 21.2 °F 28.4 °F 87% 30.33 in 6.2 mi NE 16.1 mph - N/A   Mostly Cloudy
10:50 PM 32.0 °F 21.6 °F 28.4 °F 87% 30.30 in 6.2 mi NE 15.0 mph - N/A   Overcast
11:20 PM 32.0 °F 20.8 °F 28.4 °F 87% 30.30 in 6.2 mi NE 17.3 mph - N/A   Mostly Cloudy
11:50 PM 32.0 °F 20.5 °F 28.4 °F 87% 30.30 in 6.2 mi NE 18.4 mph - N/A   Mostly Cloudy